TimePST,TemperatureF,Dew PointF,Humidity,Sea Level PressureIn,VisibilityMPH,Wind Direction,Wind SpeedMPH,Gust SpeedMPH,PrecipitationIn,Events,Conditions,WindDirDegrees,DateUTC
12:10 AM,48.2,44.6,87,30.10,3.0,South,11.5,24.2,0.01,,Overcast,190,2012-11-20 08:10:00
12:30 AM,48.2,44.6,87,30.09,4.0,SW,13.8,20.7,0.03,,Overcast,220,2012-11-20 08:30:00
12:50 AM,48.2,44.6,87,30.09,4.0,South,16.1,21.9,0.06,,Overcast,190,2012-11-20 08:50:00
1:10 AM,50.0,44.6,82,30.08,5.0,WSW,4.6,19.6,0.01,,Overcast,240,2012-11-20 09:10:00
1:30 AM,50.0,46.4,87,30.07,3.0,SSW,11.5,19.6,0.06,,Overcast,200,2012-11-20 09:30:00
1:50 AM,48.2,46.4,93,30.07,4.0,South,6.9,-,0.10,,Overcast,180,2012-11-20 09:50:00
2:10 AM,48.2,46.4,93,30.06,7.0,South,11.5,18.4,N/A,,Overcast,180,2012-11-20 10:10:00
2:30 AM,50.0,44.6,82,30.06,7.0,South,10.4,19.6,N/A,,Overcast,190,2012-11-20 10:30:00
2:50 AM,48.2,44.6,87,30.06,7.0,SSW,9.2,18.4,0.02,,Overcast,200,2012-11-20 10:50:00
3:10 AM,50.0,44.6,82,30.06,10.0,South,13.8,24.2,0.01,,Overcast,180,2012-11-20 11:10:00
3:30 AM,48.2,44.6,87,30.04,8.0,SSW,12.7,27.6,0.02,,Overcast,210,2012-11-20 11:30:00
3:50 AM,48.2,44.6,87,30.04,10.0,SW,8.1,-,0.02,,Overcast,220,2012-11-20 11:50:00
4:10 AM,48.2,44.6,87,30.03,9.0,WSW,5.8,16.1,N/A,,Overcast,240,2012-11-20 12:10:00
4:30 AM,48.2,44.6,87,30.02,10.0,South,10.4,18.4,N/A,,Overcast,180,2012-11-20 12:30:00
4:50 AM,48.2,44.6,87,30.02,10.0,SSW,8.1,17.3,N/A,,Overcast,210,2012-11-20 12:50:00
5:10 AM,48.2,44.6,87,30.01,5.0,SSW,9.2,20.7,N/A,,Overcast,200,2012-11-20 13:10:00
5:30 AM,48.2,44.6,87,30.01,4.0,SSW,8.1,18.4,0.03,,Overcast,210,2012-11-20 13:30:00
5:50 AM,48.2,44.6,87,30.01,4.0,South,11.5,19.6,0.09,,Overcast,190,2012-11-20 13:50:00
6:10 AM,48.2,44.6,87,30.00,5.0,South,15.0,21.9,0.01,,Overcast,190,2012-11-20 14:10:00
6:30 AM,50.0,44.6,82,29.99,10.0,SSW,10.4,-,0.02,,Overcast,200,2012-11-20 14:30:00
6:50 AM,50.0,46.4,87,29.98,10.0,SSW,9.2,16.1,0.02,,Overcast,210,2012-11-20 14:50:00
7:10 AM,50.0,44.6,82,29.97,10.0,South,9.2,24.2,N/A,,Overcast,190,2012-11-20 15:10:00
7:30 AM,50.0,46.4,87,29.97,5.0,SSW,11.5,23.0,0.01,,Overcast,200,2012-11-20 15:30:00
7:50 AM,48.2,46.4,93,29.98,2.5,SW,8.1,-,0.03,,Overcast,230,2012-11-20 15:50:00
8:10 AM,48.2,46.4,93,29.99,1.8,WSW,6.9,-,0.03,,Overcast,240,2012-11-20 16:10:00
8:30 AM,48.2,46.4,93,29.99,2.5,SSW,10.4,18.4,0.12,,Overcast,200,2012-11-20 16:30:00
8:50 AM,48.2,44.6,87,29.99,3.0,SSW,9.2,20.7,0.17,,Overcast,200,2012-11-20 16:50:00
9:10 AM,48.2,46.4,93,29.97,3.0,SW,6.9,-,N/A,,Overcast,220,2012-11-20 17:10:00
9:30 AM,48.2,46.4,93,29.98,5.0,SW,5.8,-,0.03,,Overcast,220,2012-11-20 17:30:00
9:50 AM,48.2,46.4,93,30.01,2.0,SW,4.6,-,0.11,,Overcast,220,2012-11-20 17:50:00
10:10 AM,48.2,46.4,93,30.02,1.8,SSW,6.9,-,0.08,,Overcast,200,2012-11-20 18:10:00
10:30 AM,48.2,46.4,93,30.03,1.8,SSW,9.2,-,0.23,,Overcast,200,2012-11-20 18:30:00
10:50 AM,48.2,46.4,93,30.00,2.5,South,8.1,-,0.34,,Overcast,170,2012-11-20 18:50:00
11:10 AM,48.2,46.4,93,30.00,5.0,South,8.1,17.3,0.01,,Mostly Cloudy,190,2012-11-20 19:10:00
11:30 AM,48.2,46.4,93,29.98,7.0,SW,4.6,-,0.04,,Mostly Cloudy,220,2012-11-20 19:30:00
12:10 PM,48.2,46.4,93,29.96,1.8,SW,6.9,-,0.02,,Mostly Cloudy,220,2012-11-20 20:10:00
12:30 PM,48.2,46.4,93,29.96,1.5,West,6.9,-,0.08,,Overcast,260,2012-11-20 20:30:00
12:50 PM,48.2,46.4,93,29.96,2.0,SSW,6.9,-,0.16,,Overcast,200,2012-11-20 20:50:00
1:10 PM,48.2,46.4,93,29.96,2.5,Calm,Calm,-,0.02,,Overcast,0,2012-11-20 21:10:00
1:30 PM,48.2,46.4,93,29.97,2.5,SSW,4.6,-,0.07,,Overcast,200,2012-11-20 21:30:00
1:50 PM,48.2,46.4,93,29.97,3.0,Calm,Calm,-,0.12,,Overcast,0,2012-11-20 21:50:00
2:10 PM,50.0,48.2,94,29.95,4.0,South,4.6,-,N/A,,Overcast,180,2012-11-20 22:10:00
2:30 PM,50.0,48.2,94,29.94,4.0,SSE,6.9,-,0.01,,Mostly Cloudy,150,2012-11-20 22:30:00
2:50 PM,50.0,48.2,94,29.94,9.0,SSE,5.8,-,0.02,,Mostly Cloudy,160,2012-11-20 22:50:00
3:10 PM,50.0,48.2,94,29.94,3.0,SSE,4.6,-,0.02,,Mostly Cloudy,160,2012-11-20 23:10:00
3:30 PM,50.0,48.2,94,29.93,3.0,South,5.8,-,0.04,,Mostly Cloudy,170,2012-11-20 23:30:00
3:50 PM,50.0,48.2,94,29.94,3.0,South,6.9,-,0.07,,Overcast,170,2012-11-20 23:50:00
4:10 PM,50.0,48.2,94,29.93,3.0,SSW,6.9,-,0.01,,Mostly Cloudy,200,2012-11-21 00:10:00
4:30 PM,50.0,48.2,94,29.94,7.0,SSW,10.4,-,0.03,,Overcast,200,2012-11-21 00:30:00
4:50 PM,50.0,48.2,94,29.93,5.0,South,8.1,-,0.07,,Mostly Cloudy,180,2012-11-21 00:50:00
5:10 PM,50.0,48.2,94,29.92,5.0,South,8.1,-,N/A,,Overcast,170,2012-11-21 01:10:00
5:30 PM,50.0,48.2,94,29.92,10.0,SSE,5.8,-,N/A,,Overcast,160,2012-11-21 01:30:00
5:50 PM,50.0,46.4,87,29.91,9.0,South,11.5,-,N/A,,Overcast,170,2012-11-21 01:50:00
6:10 PM,50.0,46.4,87,29.92,10.0,South,9.2,-,N/A,,Overcast,180,2012-11-21 02:10:00
6:30 PM,50.0,46.4,87,29.92,10.0,SSE,11.5,17.3,N/A,,Overcast,160,2012-11-21 02:30:00
6:50 PM,50.0,46.4,87,29.91,10.0,South,10.4,-,N/A,,Overcast,170,2012-11-21 02:50:00
7:10 PM,50.0,46.4,87,29.91,10.0,South,9.2,-,N/A,,Mostly Cloudy,180,2012-11-21 03:10:00
7:30 PM,50.0,44.6,82,29.91,10.0,South,6.9,16.1,N/A,,Partly Cloudy,180,2012-11-21 03:30:00
7:50 PM,50.0,44.6,82,29.91,10.0,South,6.9,-,N/A,,Partly Cloudy,170,2012-11-21 03:50:00
8:10 PM,50.0,44.6,82,29.91,10.0,South,9.2,-,N/A,,Clear,180,2012-11-21 04:10:00
8:30 PM,50.0,44.6,82,29.91,10.0,South,5.8,-,N/A,,Mostly Cloudy,190,2012-11-21 04:30:00
8:50 PM,51.8,44.6,76,29.91,10.0,South,8.1,17.3,N/A,,Overcast,190,2012-11-21 04:50:00
9:10 PM,51.8,44.6,76,29.91,10.0,South,8.1,-,N/A,,Overcast,190,2012-11-21 05:10:00
9:30 PM,51.8,44.6,76,29.91,10.0,South,6.9,-,N/A,,Overcast,190,2012-11-21 05:30:00
9:50 PM,50.0,44.6,82,29.91,10.0,SSW,8.1,-,N/A,,Overcast,200,2012-11-21 05:50:00
10:10 PM,50.0,42.8,76,29.91,10.0,South,6.9,-,N/A,,Mostly Cloudy,180,2012-11-21 06:10:00
10:30 PM,50.0,42.8,76,29.91,10.0,South,9.2,19.6,N/A,,Mostly Cloudy,170,2012-11-21 06:30:00
10:50 PM,50.0,41.0,71,29.91,10.0,South,12.7,17.3,0.01,,Overcast,180,2012-11-21 06:50:00
11:10 PM,50.0,41.0,71,29.91,10.0,South,13.8,19.6,N/A,,Mostly Cloudy,180,2012-11-21 07:10:00
11:30 PM,50.0,42.8,76,29.91,10.0,South,9.2,20.7,N/A,,Mostly Cloudy,170,2012-11-21 07:30:00
11:50 PM,50.0,41.0,71,29.91,10.0,SSW,6.9,16.1,N/A,,Overcast,210,2012-11-21 07:50:00